TimeMDT,TemperatureF,Dew PointF,Humidity,Sea Level PressureIn,VisibilityMPH,Wind Direction,Wind SpeedMPH,Gust SpeedMPH,PrecipitationIn,Events,Conditions,WindDirDegrees,DateUTC
12:51 AM,52.0,45.0,77,29.89,-9999.0,Calm,Calm,-,N/A,,Unknown,0,2013-07-12 06:51:00
1:51 AM,46.0,41.0,83,29.90,-9999.0,Calm,Calm,-,N/A,,Unknown,0,2013-07-12 07:51:00
2:51 AM,39.9,37.9,93,29.92,-9999.0,South,4.6,-,N/A,,Unknown,180,2013-07-12 08:51:00
3:51 AM,39.9,37.9,93,29.91,-9999.0,Calm,Calm,-,N/A,,Unknown,0,2013-07-12 09:51:00
4:51 AM,39.0,37.0,93,29.90,-9999.0,Calm,Calm,-,N/A,,Unknown,0,2013-07-12 10:51:00
5:51 AM,36.0,35.1,97,29.92,-9999.0,Calm,Calm,-,N/A,,Unknown,0,2013-07-12 11:51:00
6:51 AM,36.0,35.1,97,29.94,-9999.0,Calm,Calm,-,N/A,,Unknown,0,2013-07-12 12:51:00
7:51 AM,42.1,39.9,92,29.91,-9999.0,Calm,Calm,-,N/A,,Unknown,0,2013-07-12 13:51:00
8:51 AM,48.9,43.0,80,29.88,-9999.0,North,3.5,-,N/A,,Unknown,360,2013-07-12 14:51:00
9:51 AM,55.9,45.0,67,29.86,-9999.0,North,6.9,-,N/A,,Unknown,350,2013-07-12 15:51:00
10:51 AM,63.0,46.9,56,29.81,-9999.0,North,6.9,-,N/A,,Unknown,360,2013-07-12 16:51:00
11:51 AM,73.0,33.1,23,29.79,-9999.0,Variable,5.8,24.2,N/A,,Unknown,0,2013-07-12 17:51:00
12:51 PM,75.0,28.9,18,29.78,-9999.0,SSW,8.1,21.9,N/A,,Unknown,200,2013-07-12 18:51:00
1:51 PM,73.9,30.9,21,29.81,-9999.0,SW,9.2,21.9,N/A,,Unknown,230,2013-07-12 19:51:00
2:51 PM,73.9,32.0,21,29.83,-9999.0,South,10.4,17.3,N/A,,Unknown,180,2013-07-12 20:51:00
3:51 PM,77.0,30.9,19,29.80,-9999.0,SSW,8.1,16.1,N/A,,Unknown,200,2013-07-12 21:51:00
4:51 PM,78.1,23.0,13,29.79,-9999.0,Variable,6.9,-,N/A,,Unknown,0,2013-07-12 22:51:00
5:51 PM,78.1,24.1,14,29.80,-9999.0,West,10.4,16.1,N/A,,Unknown,260,2013-07-12 23:51:00
6:51 PM,75.9,24.1,15,29.79,-9999.0,NW,5.8,-,N/A,,Unknown,320,2013-07-13 00:51:00
7:51 PM,75.0,23.0,14,29.77,-9999.0,Calm,Calm,-,N/A,,Unknown,0,2013-07-13 01:51:00
8:51 PM,68.0,28.0,22,29.78,-9999.0,WSW,3.5,-,N/A,,Unknown,240,2013-07-13 02:51:00
9:51 PM,55.0,30.0,38,29.81,-9999.0,SSE,4.6,-,N/A,,Unknown,150,2013-07-13 03:51:00
10:51 PM,53.1,28.0,38,29.81,-9999.0,Calm,Calm,-,N/A,,Unknown,0,2013-07-13 04:51:00
11:51 PM,54.0,26.1,34,29.76,-9999.0,SSE,5.8,-,N/A,,Unknown,150,2013-07-13 05:51:00